Regional Weather Roundup
Issued by NWS

Home | Current Version | Previous Version | Graphics & Text | Print | Product List | Glossary On
Versions: 1 2 3 4 5 6 7 8 9 10 11 12 13 14 15 16 17 18 19 20 21 22 23 24 25 26 27 28 29 30 31 32 33 34 35 36 37 38 39 40 41 42 43 44 45 46 47 48 49 50
000
ASUS43 KLMK 101610
RWRKY
KENTUCKY REGIONAL WEATHER ROUNDUP
NATIONAL WEATHER SERVICE LOUISVILLE KY
1100 AM EST SAT DEC 10 2016

NOTE "FAIR" INDICATES FEW OR NO CLOUDS BELOW 12,000 FEET
WITH NO SIGNIFICANT WEATHER AND/OR OBSTRUCTIONS TO VISIBILITY.

KYZ001>023-026-027-061>063-070>075-101700-
WESTERN AND SOUTH CENTRAL KENTUCKY

CITY           SKY/WX    TMP DP  RH WIND       PRES   REMARKS
PADUCAH        SUNNY     31  19  61 SE5       30.60S WCI  26
HENDERSON      CLOUDY    28  18  64 SW3       30.62S
OWENSBORO      CLOUDY    29  23  78 CALM      30.63R
HOPKINSVILLE   SUNNY     30  18  60 SE5       30.60F WCI  25
BOWLING GREEN  MOSUNNY   29  18  63 SE3       30.63S
GLASGOW        SUNNY     29  19  66 SW3       30.61F
$$

KYZ024-025-028>034-038-045-046-053-101700-
NORTH CENTRAL KENTUCKY

CITY           SKY/WX    TMP DP  RH WIND       PRES   REMARKS
LOUISVILLE/SDF PTSUNNY   29  14  53 VRB6      30.61F WCI  23
LOUISVILLE/LOU MOSUNNY   28  16  60 SW8       30.62S WCI  20
FORT KNOX      CLOUDY    27  19  71 S2        30.58S
$$

KYZ035>037-039>044-047>052-055>060-089>105-101700-
NORTHEAST KENTUCKY

CITY           SKY/WX    TMP DP  RH WIND       PRES   REMARKS
LEXINGTON      PTSUNNY   26  14  60 MISG      30.59S
COVINGTON      PTSUNNY   25  16  68 W7        30.57R WCI  17
FRANKFORT      PTSUNNY   26  15  63 SW6       30.59S WCI  19
$$

KYZ054-064>069-076>088-106>120-101700-
SOUTHEAST KENTUCKY

CITY           SKY/WX    TMP DP  RH WIND       PRES   REMARKS
JACKSON        CLOUDY    24  15  68 VRB3      30.57S
LONDON         SUNNY     24  16  71 VRB3      30.57F
SOMERSET       MOSUNNY   23  23 100 CALM      30.61F
MIDDLESBORO    SUNNY     26  18  72 CALM      30.59F
MONTICELLO     SUNNY     31  25  78 VRB5      30.61F WCI  26
$$





USA.gov is the U.S. government's official web portal to all federal, state and local government web resources and services.